VIR106F KSEA-EGLL

Flight info

Callsign VIR106F
Flight time N/A
Altitude 37000
Route ALPSE DCT YDC DCT ROMRA DCT 57N110W 62N100W 6530N09000W 6730N08000W/N0466F390 6830N07000W/M080F390 DCT BOPUT DCT 69N060W 68N050W 67N040W 65N030W 62N020W DCT GOMUP/N0447F390 DCT GINGA DCT KELLY L10 WAL UY53 NUGRA
Aircraft A339/H-SADE1E2E3GHIJ3J5M1P2RWXY/LB2D1

Departure

Time N/A
Airport Seattle–Tacoma International Airport (KSEA)

Arrival

Time 2026-05-04 08:29
Airport London Heathrow Airport (EGLL)
Time Latitude Longitude Altitude Speed Heading
2026-05-04 06:45 60.02582 -15.50076 35078 ft 461 kts 137°
2026-05-04 06:45 60.00338 -15.45455 35199 ft 468 kts 137°
2026-05-04 06:45 59.98062 -15.40777 35319 ft 474 kts 137°
2026-05-04 06:46 59.95768 -15.36065 35436 ft 480 kts 137°
2026-05-04 06:46 59.93425 -15.31265 35549 ft 485 kts 138°
2026-05-04 06:46 59.91084 -15.26478 35661 ft 491 kts 138°
2026-05-04 06:46 59.88683 -15.21575 35797 ft 496 kts 138°
2026-05-04 06:48 59.71851 -14.87524 37893 ft 495 kts 137°
2026-05-04 06:48 59.69452 -14.82713 38209 ft 495 kts 137°
2026-05-04 06:49 59.67055 -14.77914 38521 ft 494 kts 137°
2026-05-04 06:50 59.50171 -14.44412 39015 ft 494 kts 136°
2026-05-04 06:51 59.45356 -14.34952 39025 ft 494 kts 137°
2026-05-04 06:51 59.40485 -14.25425 39024 ft 494 kts 137°
2026-05-04 06:52 59.35640 -14.15989 39011 ft 494 kts 137°
2026-05-04 06:52 59.30793 -14.06587 39017 ft 494 kts 137°
2026-05-04 06:53 59.25914 -13.97167 39006 ft 493 kts 137°
2026-05-04 06:53 59.21076 -13.87861 39018 ft 493 kts 137°
2026-05-04 06:54 59.16194 -13.78511 39027 ft 493 kts 137°
2026-05-04 06:54 59.11306 -13.69190 39000 ft 493 kts 137°
2026-05-04 06:55 59.06448 -13.59969 39012 ft 493 kts 137°
2026-05-04 06:55 59.01556 -13.50716 39010 ft 493 kts 137°
2026-05-04 06:57 58.81944 -13.14013 39003 ft 493 kts 138°
2026-05-04 06:58 58.77012 -13.04877 39010 ft 493 kts 139°
2026-05-04 06:58 58.72100 -12.95820 39006 ft 492 kts 138°
2026-05-04 06:59 58.67168 -12.86762 39012 ft 491 kts 138°
2026-05-04 06:59 58.62241 -12.77748 38997 ft 491 kts 138°
2026-05-04 07:01 58.42500 -12.42001 39004 ft 491 kts 138°
2026-05-04 07:02 58.37558 -12.33146 39013 ft 490 kts 139°
2026-05-04 07:02 58.32605 -12.24300 39003 ft 490 kts 139°
2026-05-04 07:03 58.27658 -12.15506 39020 ft 490 kts 139°
2026-05-04 07:03 58.22698 -12.06724 39025 ft 490 kts 139°
2026-05-04 07:04 58.17732 -11.97963 39011 ft 489 kts 139°
2026-05-04 07:04 58.12769 -11.89246 39015 ft 489 kts 139°
2026-05-04 07:05 58.07808 -11.80564 39013 ft 489 kts 139°
2026-05-04 07:05 58.02835 -11.71896 39011 ft 489 kts 139°
2026-05-04 07:06 57.95349 -11.58916 39002 ft 488 kts 139°
2026-05-04 07:07 57.90356 -11.50298 38998 ft 488 kts 139°
2026-05-04 07:09 57.70382 -11.16167 39004 ft 488 kts 139°
2026-05-04 07:09 57.65412 -11.07756 39018 ft 488 kts 139°
2026-05-04 07:10 57.60392 -10.99292 39007 ft 487 kts 139°
2026-05-04 07:12 57.40315 -10.65774 39027 ft 487 kts 139°
2026-05-04 07:12 57.35300 -10.57481 39027 ft 487 kts 139°
2026-05-04 07:13 57.30273 -10.49201 39026 ft 486 kts 139°
2026-05-04 07:13 57.25215 -10.40901 39029 ft 485 kts 139°
2026-05-04 07:14 57.12644 -10.20404 39030 ft 485 kts 140°
2026-05-04 07:15 57.07602 -10.12240 39032 ft 484 kts 139°
2026-05-04 07:15 57.03022 -10.03254 39033 ft 485 kts 127°
2026-05-04 07:16 56.99475 -9.92810 39036 ft 484 kts 115°
2026-05-04 07:16 56.97116 -9.81357 39035 ft 481 kts 104°
2026-05-04 07:17 56.95421 -9.69591 39038 ft 481 kts 103°
2026-05-04 07:17 56.93293 -9.58009 39033 ft 483 kts 112°
2026-05-04 07:18 56.90108 -9.47242 39029 ft 484 kts 123°
2026-05-04 07:18 56.85984 -9.37608 39031 ft 485 kts 133°
2026-05-04 07:19 56.81296 -9.28752 39039 ft 485 kts 134°
2026-05-04 07:19 56.76613 -9.19993 39043 ft 485 kts 134°
2026-05-04 07:20 56.71947 -9.11261 39047 ft 484 kts 134°
2026-05-04 07:20 56.67250 -9.02480 39045 ft 484 kts 134°
2026-05-04 07:22 56.48508 -8.67742 39052 ft 484 kts 133°
2026-05-04 07:23 56.43834 -8.59158 39053 ft 483 kts 133°
2026-05-04 07:23 56.39134 -8.50560 39057 ft 483 kts 133°
2026-05-04 07:24 56.34421 -8.41969 39051 ft 483 kts 133°
2026-05-04 07:24 56.29691 -8.33382 39059 ft 483 kts 134°
2026-05-04 07:26 56.10824 -7.99434 39062 ft 482 kts 134°
2026-05-04 07:27 56.06090 -7.90996 39064 ft 481 kts 134°
2026-05-04 07:27 56.01340 -7.82559 39064 ft 481 kts 134°
2026-05-04 07:28 55.96634 -7.74233 39057 ft 480 kts 134°
2026-05-04 07:28 55.91906 -7.65896 39065 ft 481 kts 133°
2026-05-04 07:29 55.87156 -7.57550 39048 ft 481 kts 133°
2026-05-04 07:29 55.82402 -7.49226 39056 ft 481 kts 133°
2026-05-04 07:30 55.77658 -7.40951 39056 ft 481 kts 133°
2026-05-04 07:30 55.72892 -7.32671 39058 ft 480 kts 134°
2026-05-04 07:31 55.68140 -7.24444 39049 ft 479 kts 134°
2026-05-04 07:33 55.49152 -6.91852 39056 ft 476 kts 134°
2026-05-04 07:33 55.44405 -6.83777 39061 ft 476 kts 134°
2026-05-04 07:34 55.39672 -6.75753 39061 ft 476 kts 134°
2026-05-04 07:34 55.34897 -6.67687 39060 ft 475 kts 134°
2026-05-04 07:35 55.30146 -6.59693 39062 ft 474 kts 134°
2026-05-04 07:35 55.25427 -6.51774 39047 ft 473 kts 134°
2026-05-04 07:36 55.20679 -6.43836 39051 ft 473 kts 134°
2026-05-04 07:38 55.01682 -6.12357 39037 ft 472 kts 135°
2026-05-04 07:38 54.96947 -6.04572 39034 ft 471 kts 135°
2026-05-04 07:39 54.92191 -5.96783 39042 ft 470 kts 135°
2026-05-04 07:39 54.87446 -5.89040 39045 ft 470 kts 135°
2026-05-04 07:40 54.82677 -5.81285 39049 ft 470 kts 135°
2026-05-04 07:40 54.77951 -5.73624 39050 ft 470 kts 135°
2026-05-04 07:41 54.73188 -5.65934 39050 ft 470 kts 135°
2026-05-04 07:41 54.68424 -5.58261 39046 ft 469 kts 135°
2026-05-04 07:42 54.63663 -5.50620 39044 ft 469 kts 135°
2026-05-04 07:42 54.58906 -5.43013 39052 ft 469 kts 135°
2026-05-04 07:43 54.54143 -5.35421 39040 ft 468 kts 135°
2026-05-04 07:43 54.49337 -5.27785 39045 ft 468 kts 136°
2026-05-04 07:44 54.44583 -5.20258 39049 ft 468 kts 136°
2026-05-04 07:44 54.39830 -5.12756 39050 ft 468 kts 136°
2026-05-04 07:45 54.35041 -5.05225 39051 ft 468 kts 136°
2026-05-04 07:45 54.30257 -4.97725 39039 ft 467 kts 136°
2026-05-04 07:46 54.25489 -4.90276 39036 ft 467 kts 136°
2026-05-04 07:46 54.20695 -4.82806 39053 ft 467 kts 136°
2026-05-04 07:47 54.15920 -4.75394 39042 ft 467 kts 136°
2026-05-04 07:49 53.96725 -4.45833 39041 ft 465 kts 136°
2026-05-04 07:49 53.92089 -4.38298 39050 ft 465 kts 131°
2026-05-04 07:50 53.87918 -4.29930 39042 ft 464 kts 126°
2026-05-04 07:50 53.84238 -4.21030 39037 ft 464 kts 123°
2026-05-04 07:51 53.80570 -4.12047 39036 ft 464 kts 124°
2026-05-04 07:51 53.76902 -4.03145 39043 ft 464 kts 124°
2026-05-04 07:52 53.73213 -3.94234 39035 ft 465 kts 124°
2026-05-04 07:52 53.69515 -3.85321 39041 ft 464 kts 124°
2026-05-04 07:54 53.54704 -3.49957 39026 ft 464 kts 124°
2026-05-04 07:55 53.50968 -3.41115 39032 ft 464 kts 124°
2026-05-04 07:55 53.47240 -3.32318 39030 ft 464 kts 125°
2026-05-04 07:56 53.43494 -3.23506 39031 ft 466 kts 125°
2026-05-04 07:56 53.39748 -3.14728 39024 ft 466 kts 125°
2026-05-04 07:57 53.35927 -3.06017 39038 ft 467 kts 126°
2026-05-04 07:57 53.32041 -2.97333 39026 ft 466 kts 126°
2026-05-04 07:58 53.28185 -2.88717 38786 ft 465 kts 126°
2026-05-04 07:58 53.26250 -2.84405 38424 ft 462 kts 126°
2026-05-04 07:58 53.24329 -2.80126 38006 ft 460 kts 125°
2026-05-04 07:59 53.22413 -2.75867 37503 ft 460 kts 125°
2026-05-04 07:59 53.20519 -2.71662 36992 ft 460 kts 124°
2026-05-04 07:59 53.18600 -2.67408 36449 ft 460 kts 124°
2026-05-04 07:59 53.16677 -2.63151 35999 ft 460 kts 124°
2026-05-04 08:00 53.14751 -2.58912 35597 ft 461 kts 123°
2026-05-04 08:00 53.12907 -2.54650 35140 ft 461 kts 120°
2026-05-04 08:00 53.11106 -2.50246 34578 ft 463 kts 120°
2026-05-04 08:02 52.96278 -2.23458 31178 ft 440 kts 141°
2026-05-04 08:02 52.93722 -2.20718 30858 ft 436 kts 143°
2026-05-04 08:02 52.91183 -2.18063 30494 ft 432 kts 143°
2026-05-04 08:03 52.88632 -2.15395 30096 ft 428 kts 143°
2026-05-04 08:03 52.86143 -2.12791 29721 ft 423 kts 144°
2026-05-04 08:03 52.83688 -2.10227 29340 ft 420 kts 144°
2026-05-04 08:03 52.81223 -2.07654 28960 ft 416 kts 144°
2026-05-04 08:04 52.78793 -2.05120 28615 ft 411 kts 145°
2026-05-04 08:04 52.76384 -2.02616 28246 ft 408 kts 145°
2026-05-04 08:04 52.74000 -2.00144 27840 ft 405 kts 145°
2026-05-04 08:04 52.71747 -1.97808 27451 ft 403 kts 145°
2026-05-04 08:05 52.69402 -1.95379 27073 ft 400 kts 146°
2026-05-04 08:05 52.67061 -1.92958 26691 ft 397 kts 146°
2026-05-04 08:05 52.64727 -1.90548 26317 ft 394 kts 146°
2026-05-04 08:05 52.62407 -1.88156 25958 ft 391 kts 146°
2026-05-04 08:06 52.60118 -1.85798 25642 ft 386 kts 146°
2026-05-04 08:06 52.57871 -1.83486 25254 ft 385 kts 146°
2026-05-04 08:06 52.55603 -1.81144 24786 ft 385 kts 148°
2026-05-04 08:06 52.53368 -1.78826 24359 ft 383 kts 149°
2026-05-04 08:08 52.37965 -1.63128 21776 ft 365 kts 149°
2026-05-04 08:08 52.35827 -1.60955 21425 ft 362 kts 149°
2026-05-04 08:10 52.19489 -1.43602 20045 ft 366 kts 141°
2026-05-04 08:11 52.17535 -1.40883 19974 ft 370 kts 140°
2026-05-04 08:11 52.13672 -1.35473 19258 ft 366 kts 140°
2026-05-04 08:11 52.11738 -1.32772 18861 ft 363 kts 141°
2026-05-04 08:12 52.09827 -1.30109 18362 ft 360 kts 141°
2026-05-04 08:12 52.07960 -1.27510 17785 ft 355 kts 141°
2026-05-04 08:12 52.06078 -1.24895 17307 ft 355 kts 141°
2026-05-04 08:12 52.04205 -1.22297 16866 ft 354 kts 141°
2026-05-04 08:13 52.02342 -1.19716 16433 ft 352 kts 141°
2026-05-04 08:13 52.00483 -1.17143 16032 ft 352 kts 141°
2026-05-04 08:13 51.98654 -1.14617 15678 ft 349 kts 141°
2026-05-04 08:13 51.96822 -1.12088 15227 ft 344 kts 141°
2026-05-04 08:14 51.95022 -1.09605 14791 ft 335 kts 141°
2026-05-04 08:14 51.93273 -1.07193 14372 ft 326 kts 141°
2026-05-04 08:14 51.91575 -1.04853 13985 ft 317 kts 141°
2026-05-04 08:16 51.82583 -0.87483 11356 ft 272 kts 117°
2026-05-04 08:16 51.81771 -0.84775 10988 ft 267 kts 117°
2026-05-04 08:16 51.80964 -0.82107 10574 ft 264 kts 117°
2026-05-04 08:17 51.80162 -0.79478 10179 ft 261 kts 117°
2026-05-04 08:17 51.79366 -0.76875 9817 ft 257 kts 117°
2026-05-04 08:17 51.78582 -0.74322 9479 ft 252 kts 117°
2026-05-04 08:17 51.77812 -0.71813 9153 ft 248 kts 117°
2026-05-04 08:19 51.72339 -0.54416 7236 ft 248 kts 122°
2026-05-04 08:19 51.71372 -0.52171 7089 ft 243 kts 125°
2026-05-04 08:20 51.70389 -0.49979 7025 ft 240 kts 125°
2026-05-04 08:20 51.69416 -0.47819 7004 ft 241 kts 125°
2026-05-04 08:20 51.68420 -0.45608 7004 ft 242 kts 125°
2026-05-04 08:20 51.67436 -0.43423 7004 ft 243 kts 125°
2026-05-04 08:21 51.66445 -0.41219 7004 ft 243 kts 125°
2026-05-04 08:21 51.65459 -0.39032 7006 ft 244 kts 125°
2026-05-04 08:21 51.64457 -0.36807 7004 ft 243 kts 125°
2026-05-04 08:21 51.63473 -0.34626 7004 ft 240 kts 126°
2026-05-04 08:22 51.62526 -0.32528 7000 ft 242 kts 126°
2026-05-04 08:22 51.61532 -0.30333 6997 ft 240 kts 127°
2026-05-04 08:24 51.54723 -0.15633 4994 ft 225 kts 125°
2026-05-04 08:24 51.53788 -0.13630 4744 ft 219 kts 131°
2026-05-04 08:24 51.52536 -0.12429 4520 ft 211 kts 175°
2026-05-04 08:24 51.51175 -0.12923 4330 ft 202 kts 216°
2026-05-04 08:25 51.50133 -0.14340 4089 ft 197 kts 226°
2026-05-04 08:25 51.49327 -0.16135 3711 ft 198 kts 248°
2026-05-04 08:25 51.48842 -0.18196 3349 ft 201 kts 254°
2026-05-04 08:25 51.48443 -0.20371 2970 ft 204 kts 253°
2026-05-04 08:26 51.48057 -0.22549 2603 ft 206 kts 260°
2026-05-04 08:27 51.47798 -0.37065 895 ft 171 kts 272°
2026-05-04 08:28 51.47788 -0.38939 666 ft 167 kts 272°
2026-05-04 08:28 51.47779 -0.40758 450 ft 160 kts 272°
2026-05-04 08:28 51.47772 -0.42523 251 ft 154 kts 272°
2026-05-04 08:28 51.47760 -0.44190 102 ft 147 kts 271°
2026-05-04 08:29 51.47761 -0.45643 100 ft 104 kts 271°
2026-05-04 08:29 51.47758 -0.46354 100 ft 30 kts 269°
2026-05-04 08:29 51.47722 -0.46638 100 ft 24 kts 250°
2026-05-04 08:31 51.47328 -0.46719 100 ft 3 kts 145°
2026-05-04 08:33 51.47318 -0.46576 100 ft 0 kts 90°